Content
SEND FEEDBACK

Netherlands Flag

MAASTRICHT, NETHERLANDS


Home > Europe > Netherlands
Elevation: 380 feet     Latitude: 50 55N     Longitude: 005 47E

WEATHER
 
SELECT A DAY
Number of Records: 341,657;   Date Range: 7/1/96 - 3/22/16
 
SHARE

PRINT THIS DATA

[ ← Previous Day ]
WEATHER ALMANAC - AUGUST 15, 2013
[ Next Day → ]
[ °C ]   °F
Weather ElementAverageHighLow
Temperature62.9 °F73.4 °F (4:55 pm)55 °F (5:00 am)
Dewpoint53.9 °F60.8 °F (2:55 pm)50 °F (12:55 am)
Humidity72.1 %83 % (2:55 pm)50 % (5:00 pm)
Barometer30.16 in30.21 in (12:55 am)30.12 in (5:25 pm)
Wind Speed8.6 mph16.1 mph (1:55 pm)
Weather ElementAverage
Visibility7.8 mi
Wind DirectionSSW (193.7 °)

Weather ElementTotal
Precipitation---
Heating Degree Days0.8 (Base 65)
Growing Degree Days14.2 (Base 50)
Averaged from 54 records on August 15, 2013
WEATHER CONDITIONS BREAKOUT
WIND DIRECTION BREAKOUT
WEATHER BY HOUR - AUGUST 15, 2013
[ °C ]   °F
Local TimeTemperatureDewpointHumidityBarometerVisibilityWind DirectionWind SpeedGust SpeedPrecipitationEventsConditions
12:55 AM55.4 °F50.0 °F82 %30.21 in6.2 miSouth (170°)4.6 mph
1:25 AM55.4 °F50.0 °F82 %30.18 in6.2 miSouth (170°)5.8 mph
1:55 AM57.2 °F50.0 °F77 %30.18 in6.2 miSouth (170°)5.8 mph
2:00 AM56.0 °F50.0 °F73 %30.21 in14.0 miSSE (160°)4.5 mphPartly Cloudy
2:25 AM55.4 °F50.0 °F82 %30.18 in6.2 miSouth (170°)5.8 mph
2:55 AM55.4 °F50.0 °F82 %30.18 in6.2 miSSE (160°)5.8 mph
3:25 AM55.4 °F50.0 °F82 %30.18 in6.2 miSSE (160°)5.8 mph
3:55 AM55.4 °F50.0 °F82 %30.18 in6.2 miSouth (170°)5.8 mph
4:25 AM55.4 °F50.0 °F82 %30.18 in6.2 miSouth (170°)5.8 mph
4:55 AM55.4 °F50.0 °F82 %30.18 in6.2 miSouth (180°)5.8 mph
5:00 AM55.0 °F50.0 °F76 %30.19 in19.0 miSouth (180°)6.7 mphOvercast
5:25 AM55.4 °F50.0 °F82 %30.18 in6.2 miSouth (190°)6.9 mph
5:55 AM55.4 °F50.0 °F82 %30.18 in6.2 miSouth (190°)9.2 mph
6:25 AM55.4 °F50.0 °F82 %30.18 in6.2 miSouth (190°)8.1 mph
6:55 AM57.2 °F50.0 °F77 %30.18 in6.2 miSouth (190°)9.2 mph
7:25 AM57.2 °F50.0 °F77 %30.18 in6.2 miSSW (200°)9.2 mph
7:55 AM57.2 °F51.8 °F82 %30.18 in6.2 miSSW (210°)11.5 mph
8:00 AM58.0 °F51.0 °F71 %30.20 in17.0 miSSW (210°)11.2 mphPartly Cloudy
8:25 AM57.2 °F51.8 °F82 %30.18 in6.2 miSSW (200°)9.2 mph
8:55 AM59.0 °F51.8 °F77 %30.18 in6.2 miSSW (200°)10.4 mph
9:25 AM62.6 °F51.8 °F68 %30.18 in6.2 miSSW (210°)10.4 mph
9:55 AM62.6 °F51.8 °F68 %30.18 in6.2 miSSW (210°)9.2 mphPartly Cloudy
10:25 AM62.6 °F51.8 °F68 %30.18 in6.2 miSSW (200°)9.2 mphMostly Cloudy
10:55 AM62.6 °F53.6 °F72 %30.18 in6.2 miSSW (200°)9.2 mphOvercast
11:00 AM63.0 °F54.0 °F63 %30.21 in16.0 miSouth (190°)8.9 mphOvercast
11:25 AM64.4 °F53.6 °F68 %30.18 in6.2 miSSW (200°)9.2 mphOvercast
11:55 AM66.2 °F53.6 °F64 %30.18 in6.2 miSSW (210°)10.4 mphOvercast
12:25 PM66.2 °F53.6 °F64 %30.18 in6.2 miSouth (190°)8.1 mphOvercast
12:55 PM68.0 °F53.6 °F60 %30.18 in6.2 miSSW (200°)9.2 mphOvercast
1:25 PM69.8 °F55.4 °F60 %30.18 in6.2 miSW (220°)15.0 mphOvercast
1:55 PM66.2 °F57.2 °F73 %30.18 in6.2 miSW (230°)16.1 mphOvercast
2:00 PM67.0 °F58.0 °F66 %30.19 in18.0 miSW (230°)15.7 mphPartly Cloudy
2:25 PM66.2 °F59.0 °F78 %30.15 in6.2 miSW (220°)15.0 mphOvercast
2:55 PM66.2 °F60.8 °F83 %30.18 in6.2 miSSW (210°)12.7 mphMostly Cloudy
3:25 PM66.2 °F60.8 °F83 %30.15 in6.2 miSSW (200°)9.2 mphPartly Cloudy
3:55 PM68.0 °F60.8 °F78 %30.15 in6.2 miSSW (200°)6.9 mph
4:25 PM68.0 °F60.8 °F78 %30.15 in6.2 miSouth (180°)8.1 mph
4:55 PM73.4 °F59.0 °F61 %30.15 in6.2 miSouth (190°)9.2 mph
5:00 PM72.0 °F57.0 °F50 %30.15 in22.0 miSouth (190°)11.2 mphPartly Cloudy
5:25 PM71.6 °F57.2 °F60 %30.12 in6.2 miSW (220°)12.7 mph
5:55 PM71.6 °F57.2 °F60 %30.15 in6.2 miSW (230°)13.8 mph
6:25 PM71.6 °F57.2 °F60 %30.12 in6.2 miSSW (210°)10.4 mph
6:55 PM71.6 °F55.4 °F57 %30.12 in6.2 miSSW (210°)11.5 mph
7:25 PM71.6 °F55.4 °F57 %30.12 in6.2 miSSW (210°)10.4 mph
7:55 PM69.8 °F57.2 °F64 %30.12 in6.2 miSSW (210°)8.1 mph
8:00 PM69.0 °F56.0 °F54 %30.13 in25.0 miSSW (210°)6.7 mphPartly Cloudy
8:25 PM68.0 °F55.4 °F64 %30.12 in6.2 miSSW (200°)5.8 mph
8:55 PM68.0 °F55.4 °F64 %30.12 in6.2 miSouth (190°)5.8 mph
9:25 PM64.4 °F55.4 °F73 %30.12 in6.2 miSouth (190°)3.5 mph
9:55 PM64.4 °F55.4 °F73 %30.12 in6.2 miSouth (190°)4.6 mph
10:25 PM64.4 °F55.4 °F73 %30.12 in6.2 miSouth (170°)3.5 mph
10:55 PM60.8 °F55.4 °F82 %30.12 in6.2 miSSE (160°)4.6 mph
11:25 PM62.6 °F55.4 °F77 %30.12 in6.2 miSouth (180°)4.6 mph
11:55 PM62.6 °F55.4 °F77 %30.12 in6.2 miSSE (160°)5.8 mph
Hourly data recorded from EHBK, located miles away from Maastricht, Netherlands




STORIES FROM OUR PARTNERS